W6DSP Weather Reports


Display with metric or nautical units.
time (UTC)temp
F
wind
direction
speed
MPH
gust
MPH
rain 1hr
in
rain 24hr
in
rain mn
in
humidity
%
barometer
mb
20260502151743 46 329 4.0 12.0 0.00 0.00 0.00 60 1020.9
20260502150541 47 49 4.0 12.0 0.00 0.00 0.00 60 1020.9
20260502130416 41 22 5.0 14.0 0.00 0.00 0.00 71 1020.6
20260502122817 39 350 3.0 8.0 0.00 0.00 0.00 77 1020.3
20260502121539 38 331 1.0 7.0 0.00 0.01 0.00 78 1020.1
20260502120356 37 19 1.0 6.0 0.00 0.04 0.00 79 1020.1
20260502115137 36 18 1.0 6.0 0.00 0.04 0.00 80 1020.1
20260502113938 34 327 0.0 2.0 0.00 0.04 0.00 84 1020.1
20260502112733 33 348 0.0 0.0 0.00 0.04 0.00 85 1019.9
20260502111538 32 348 0.0 0.0 0.00 0.04 0.00 85 1019.8
20260502110301 32 348 0.0 0.0 0.00 0.04 0.00 85 1019.7
20260502105040 31 348 0.0 0.0 0.00 0.04 0.00 85 1019.5
20260502103839 31 348 0.0 0.0 0.00 0.04 0.00 85 1019.5
20260502102619 32 348 0.0 0.0 0.00 0.04 0.00 85 1019.4
20260502101359 32 348 0.0 0.0 0.00 0.04 0.00 85 1019.5
20260502100203 32 348 0.0 0.0 0.00 0.05 0.00 85 1019.4
20260502091423 32 348 0.0 0.0 0.00 0.05 0.00 83 1019.3
20260502090201 32 348 0.0 0.0 0.00 0.05 0.00 83 1019.3
20260502070351 36 355 1.0 4.0 0.00 0.19 0.00 70 1019.2
20260502065216 36 328 1.0 4.0 0.00 0.20 0.00 69 1019.4
20260502064015 37 342 1.0 7.0 0.00 0.20 0.00 69 1019.4
20260502062831 37 346 1.0 7.0 0.00 0.21 0.00 68 1019.5
20260502061650 38 334 1.0 6.0 0.00 0.22 0.00 67 1019.4
20260502060455 38 0 3.0 7.0 0.00 0.23 0.00 66 1019.5
20260502055241 39 348 1.0 9.0 0.00 0.25 0.00 68 1019.6
20260502054106 39 346 3.0 14.0 0.00 0.25 0.00 69 1019.5
20260502052923 40 0 4.0 14.0 0.00 0.26 0.00 68 1019.5
20260502051745 40 341 1.0 6.0 0.00 0.26 0.00 73 1019.4
20260502050537 40 355 0.0 3.0 0.00 0.27 0.00 79 1019.5
20260502045351 40 327 0.0 0.0 0.00 0.27 0.00 80 1019.4
20260502044135 39 327 0.0 0.0 0.00 0.28 0.00 81 1019.5
20260502042857 39 327 0.0 0.0 0.00 0.28 0.00 81 1019.6
20260502041616 38 327 0.0 0.0 0.00 0.28 0.00 82 1019.7
20260502040402 38 327 0.0 0.0 0.00 0.29 0.00 82 1019.7
20260502035200 38 327 0.0 0.0 0.00 0.29 0.30 80 1019.7
20260502033959 39 327 0.0 0.0 0.00 0.29 0.30 78 1019.6
20260502032816 39 327 0.0 0.0 0.00 0.29 0.30 80 1019.5
20260502031634 38 327 0.0 0.0 0.00 0.29 0.30 80 1019.4
20260502030442 38 327 0.0 0.0 0.00 0.29 0.30 79 1019.2
20260502025306 38 327 0.0 1.0 0.00 0.29 0.30 78 1019.1
20260502024052 39 327 0.0 0.0 0.00 0.29 0.30 77 1019.0
20260502022855 40 327 0.0 3.0 0.00 0.29 0.30 73 1018.9
20260502021622 41 327 0.0 1.0 0.00 0.29 0.30 74 1018.8
20260502020358 41 306 1.0 6.0 0.00 0.29 0.30 70 1018.5
20260502015214 41 326 0.0 3.0 0.00 0.29 0.30 71 1018.6
20260502013936 41 339 0.0 2.0 0.00 0.29 0.30 73 1018.4
20260502012711 42 339 0.0 6.0 0.00 0.29 0.30 71 1018.1
20260502011452 42 348 0.0 4.0 0.00 0.29 0.30 69 1018.0
20260502010258 42 348 0.0 1.0 0.00 0.29 0.30 71 1017.9
20260502005022 44 348 1.0 11.0 0.00 0.29 0.30 66 1017.7
20260502003833 45 355 3.0 11.0 0.00 0.29 0.30 58 1017.6
20260502002609 46 355 3.0 9.0 0.00 0.29 0.30 57 1017.6
20260502001353 47 323 3.0 12.0 0.00 0.29 0.30 54 1017.5
20260502000203 47 325 4.0 12.0 0.00 0.29 0.30 53 1017.6
20260501235019 48 344 4.0 15.0 0.00 0.29 0.30 54 1017.5
20260501233748 48 335 5.0 15.0 0.00 0.29 0.30 53 1017.4
20260501232540 49 344 5.0 15.0 0.00 0.29 0.30 51 1017.3
20260501231328 49 325 6.0 19.0 0.00 0.29 0.30 50 1017.2
20260501230100 50 342 6.0 19.0 0.00 0.29 0.30 50 1017.2
20260501224904 51 351 4.0 14.0 0.00 0.29 0.30 50 1017.1
20260501223703 51 9 3.0 12.0 0.00 0.29 0.30 51 1017.2
20260501222459 50 325 5.0 15.0 0.00 0.29 0.30 52 1017.1
20260501221218 52 329 3.0 14.0 0.00 0.29 0.30 52 1017.0
20260501220036 52 350 5.0 19.0 0.00 0.29 0.30 48 1017.0
20260501214804 52 355 5.0 20.0 0.00 0.29 0.30 52 1016.9
20260501213603 54 0 3.0 20.0 0.00 0.29 0.30 46 1016.8
20260501212418 53 18 6.0 20.0 0.00 0.29 0.30 50 1016.6
20260501211228 54 0 3.0 16.0 0.00 0.29 0.30 51 1016.5
20260501210050 53 39 4.0 16.0 0.00 0.29 0.30 57 1016.4
20260501204852 52 5 3.0 16.0 0.00 0.29 0.30 59 1016.5
20260501203704 51 346 3.0 12.0 0.00 0.29 0.30 59 1016.8
20260501202523 51 343 4.0 12.0 0.00 0.29 0.30 60 1016.5
20260501201330 53 286 3.0 7.0 0.00 0.29 0.30 52 1016.5
20260501200159 52 340 3.0 9.0 0.00 0.29 0.30 60 1016.5
20260501194931 52 336 1.0 8.0 0.00 0.29 0.30 63 1016.5
20260501193707 53 323 1.0 9.0 0.00 0.29 0.30 59 1016.3
20260501192514 55 0 3.0 15.0 0.00 0.29 0.30 59 1016.2
20260501191257 54 78 3.0 15.0 0.00 0.29 0.30 61 1016.4
20260501190111 53 355 3.0 11.0 0.00 0.29 0.30 64 1016.3
20260501184931 53 290 3.0 11.0 0.00 0.29 0.30 58 1016.2
20260501183716 52 15 1.0 11.0 0.00 0.29 0.30 62 1016.2
20260501182510 52 333 5.0 18.0 0.00 0.29 0.30 62 1016.0
20260501181317 53 355 4.0 15.0 0.00 0.29 0.30 56 1016.0
20260501180121 51 48 3.0 11.0 0.00 0.29 0.30 66 1016.1
20260501174924 51 348 1.0 12.0 0.00 0.29 0.30 66 1016.1
20260501173654 51 355 1.0 12.0 0.00 0.29 0.30 63 1016.0
20260501172431 50 296 4.0 11.0 0.00 0.29 0.30 62 1016.0
20260501171239 51 355 4.0 12.0 0.00 0.29 0.30 70 1016.0
20260501170058 51 5 4.0 12.0 0.00 0.29 0.30 70 1016.0
20260501164819 49 333 4.0 9.0 0.00 0.29 0.30 68 1016.0
20260501163559 49 5 4.0 14.0 0.00 0.29 0.30 69 1016.1
20260501162350 49 14 5.0 19.0 0.00 0.29 0.30 73 1016.0
20260501161120 49 327 6.0 19.0 0.00 0.29 0.30 73 1016.1
20260501155911 48 355 5.0 15.0 0.00 0.29 0.30 75 1016.0
20260501154726 47 319 4.0 14.0 0.00 0.29 0.30 74 1015.9
20260501153529 45 332 4.0 14.0 0.00 0.29 0.30 77 1015.9